Torna al catalogo

STARLINK-11596

AttivoComunicazioniVLEO
NORAD 64321·PAYLOAD·🇺🇸 United States

Lanciato Jun 10, 2025 da Cape Canaveral Space Force Station

Loading…

Prossimi Passaggi (prossime 24 ore)

TLE

AggiornatoSource: CelesTrak SupGP

Epoca: Sep 14, 2026, 23:10 UTC

1 64321C 25124E   26257.96576389 -.00092238  00000+0 -71645-3 0  2573
2 64321  43.0004 328.5364 0001487 268.1959 327.9202 15.70883104    13

Traccia STARLINK-11596 in tempo reale con AllMySat

Download on the App Store